Wind_Speed
24 5 7 13 13 16 17 18 17 14 14 4 5 5 6 16 19 21 30 37 38 44 39 35 35 33 31 31 29 27 24 21 19 19 18 16 14 10 10 10 11 13 11 12
7 13 14 15 17 18 19 18 18 13 10 6 8 10 8 9 8 15 22 37 41 37 38 37 37 35 36 36 33 27 25 23 23 22 18 15 16 14 13 11 15 13 14 11
14 16 17 19 18 20 14 8 8 7 11 9 7 8 7 10 12 18 22 41 43 43 45 42 42 41 39 38 37 29 25 23 23 23 18 20 18 16 16 14 16 15 10 8
13 18 20 19 16 17 10 11 14 7 8 5 4 7 8 8 11 9 19 19 35 38 44 42 44 43 42 39 36 29 22 21 19 20 17 14 14 13 10 14 14 13 8 5
17 21 19 20 21 15 9 7 6 6 7 4 8 2 8 8 6 6 6 23 34 35 45 35 44 47 42 38 36 31 25 21 20 18 13 11 7 8 10 9 13 18 13 8
21 29 18 16 16 12 8 8 6 3 2 5 9 5 9 7 7 4 18 22 20 17 31 37 43 46 39 36 35 33 29 22 24 20 11 12 14 14 13 11 12 15 15 12
19 18 21 18 14 11 7 4 2 4 4 7 10 5 16 10 9 9 9 18 17 16 15 36 36 41 38 36 36 33 29 24 22 13 9 9 19 19 16 13 14 16 16 15
15 14 16 22 15 9 7 9 6 7 5 14 4 8 17 16 15 21 27 24 20 15 23 38 40 43 42 38 35 33 30 25 19 7 10 7 5 8 11 12 14 13 13 11
16 18 13 21 20 14 7 7 7 5 8 4 6 10 7 13 9 3 12 21 25 25 25 41 43 43 40 37 35 30 26 21 9 8 4 3 8 8 7 9 8 8 11 8
15 15 10 15 13 16 11 8 3 2 5 6 7 4 4 4 10 15 13 18 28 31 37 36 37 35 31 28 24 21 16 17 9 9 9 7 8 10 8 8 10 8 9 11
12 11 9 14 17 14 6 6 5 4 5 6 4 4 3 7 13 10 10 23 29 35 36 33 28 23 18 16 15 16 15 17 13 12 13 15 10 11 11 11 10 9 7 10
9 8 6 14 16 13 9 13 11 6 9 4 5 6 8 7 10 14 16 20 25 28 30 26 24 22 21 16 12 16 15 15 18 18 13 10 10 13 13 9 9 8 8 12
6 5 6 11 10 9 5 11 9 7 4 9 5 4 10 9 12 21 18 17 20 20 21 27 24 21 19 16 13 15 17 17 25 21 12 11 13 13 14 9 9 9 11 15
9 4 2 6 9 6 6 10 8 7 6 8 6 4 5 7 8 22 27 11 15 18 21 22 19 18 19 15 16 18 19 19 22 18 12 12 14 15 13 11 9 9 11 13
5 5 10 9 7 7 13 2 12 7 6 6 8 9 7 8 6 14 18 9 15 17 16 17 15 15 17 15 18 19 21 19 21 21 16 16 14 15 15 14 10 10 12 14
5 6 10 7 8 10 7 13 20 17 11 8 8 4 6 10 14 20 22 22 16 14 13 13 10 12 10 14 16 16 19 18 24 20 19 18 18 20 19 18 16 14 13 13
4 3 5 6 19 15 3 3 4 5 28 2 4 5 7 6 8 10 21 28 25 16 10 9 12 14 14 15 16 14 14 15 18 17 19 20 20 23 22 20 18 19 18 17
5 4 3 4 9 5 3 3 14 14 28 15 20 16 10 8 20 28 24 23 21 15 11 11 12 11 7 13 13 14 14 14 16 19 19 21 22 23 23 22 20 20 20 21
4 5 4 4 5 10 6 6 3 6 13 20 21 17 12 19 22 22 25 24 20 16 14 8 4 3 4 3 2 18 15 13 15 17 17 21 20 22 22 24 23 23 22 24
6 4 5 7 5 7 2 8 10 7 7 12 9 28 19 12 6 8 21 19 11 10 12 10 10 7 2 4 5 1 14 17 18 17 17 17 17 28 25 36 31 28 26 25
5 5 0 3 5 6 10 9 14 1 7 22 22 7 17 1 5 10 15 13 9 13 9 6 6 9 10 10 11 6 7 12 15 17 14 17 26 33 64 63 47 39 32 28
5 5 4 5 5 6 28 9 5 7 22 26 32 27 17 19 11 8 5 7 8 8 7 10 8 8 12 11 10 9 9 8 13 16 17 22 37 68 57 53 53 43 35 32
3 2 1 2 4 14 31 13 18 20 28 25 28 20 21 19 19 13 10 10 12 11 9 8 9 7 10 13 10 8 9 10 12 14 15 16 33 38 4 37 40 38 33 33
2 1 2 2 5 3 9 12 12 12 21 22 21 20 20 17 15 13 12 10 10 10 8 5 4 7 9 9 7 7 10 11 11 12 11 12 5 4 3 16 26 32 33 33
4 3 3 4 7 1 9 19 17 14 18 19 17 16 13 14 17 16 12 9 9 9 9 7 7 8 10 12 12 11 11 13 16 11 9 9 12 18 20 23 26 28 29 30
3 2 2 1 11 6 5 5 9 7 12 11 13 16 16 12 11 9 10 8 8 11 10 12 14 13 13 14 15 15 16 13 11 11 10 14 15 16 16 18 19 19 27 28
Wind_Direction
226 202 218 227 235 240 252 261 268 278 291 350 267 255 223 218 210 217 195 188 186 192 191 196 198 196 198 198 199 205 219 225 220 220 221 234 249 269 235 231 224 244 257 278
223 227 227 232 245 250 252 257 267 278 294 301 299 291 278 280 251 275 189 185 187 181 186 193 195 193 198 196 198 207 221 224 221 227 230 239 246 250 247 237 234 249 270 268
224 230 235 237 239 253 261 255 274 279 306 314 316 316 303 288 272 270 270 194 187 177 185 192 195 193 198 197 197 204 220 225 224 234 241 239 240 237 223 225 224 249 270 255
241 246 247 254 242 235 236 244 265 250 273 259 270 274 291 267 259 245 258 188 178 176 185 193 197 193 196 201 201 200 217 221 217 229 234 242 249 245 220 226 238 243 247 271
235 238 244 246 250 254 229 251 274 296 298 348 302 351 263 282 295 36 85 96 167 170 186 194 205 194 195 198 201 198 210 219 217 225 231 226 201 224 231 230 228 235 235 244
233 247 253 262 264 255 221 257 255 314 317 305 258 207 270 260 191 149 120 121 152 187 190 210 198 185 186 195 199 197 208 215 219 216 215 219 223 224 224 221 227 212 232 233
250 243 255 260 272 281 217 137 336 321 320 248 245 229 251 252 181 171 161 141 150 165 165 185 177 176 182 192 196 197 206 219 214 212 218 236 230 231 229 238 235 234 237 233
238 252 237 258 254 221 228 158 163 213 226 255 284 230 251 234 183 169 174 167 155 141 152 173 173 175 183 187 192 196 205 219 201 198 215 219 213 200 220 235 233 241 239 229
228 238 224 237 252 249 251 239 212 212 241 281 259 290 319 88 101 26 102 129 119 122 145 161 175 181 182 185 193 200 211 209 189 187 142 207 170 187 214 224 238 242 232 208
244 238 237 265 256 243 181 194 266 300 197 269 283 290 243 21 124 129 111 114 113 125 137 154 167 175 176 180 194 209 209 193 204 199 168 164 223 210 220 235 231 234 226 204
353 212 231 242 252 251 237 208 222 158 165 203 256 319 235 87 123 119 121 135 129 134 144 153 160 165 178 185 193 202 195 205 219 200 184 198 216 196 212 231 230 221 209 185
290 221 198 234 253 259 226 203 182 187 273 218 170 230 284 138 143 132 138 136 141 139 142 148 151 156 169 179 197 199 188 195 187 181 200 217 202 197 209 209 200 192 179 175
317 329 246 263 261 254 344 275 182 178 132 230 159 227 3 53 54 28 124 137 137 150 147 157 155 161 175 192 195 196 206 208 185 193 228 218 212 212 212 208 213 188 170 164
338 260 208 239 220 206 199 243 249 169 191 235 222 137 325 34 61 74 18 128 145 146 127 139 147 160 175 193 201 204 216 220 211 212 223 216 216 213 224 227 215 192 183 179
106 290 340 303 335 321 213 339 319 308 233 176 189 143 205 146 122 124 111 281 135 147 149 144 149 152 171 174 195 209 218 225 227 221 224 222 211 206 221 228 230 215 200 192
1 349 350 299 325 320 334 189 252 268 268 262 171 178 139 162 154 99 136 161 138 152 158 152 169 186 188 204 216 231 236 230 222 223 222 213 212 209 214 221 231 218 203 200
62 75 28 309 356 321 54 14 30 335 354 231 134 135 131 138 88 60 91 81 71 64 75 149 190 197 205 222 238 243 232 224 228 233 221 218 216 214 218 218 224 222 218 208
126 98 104 300 1 343 167 150 59 89 24 16 110 137 150 116 100 81 66 70 67 57 48 72 104 120 166 230 251 241 241 247 243 240 228 229 229 227 226 226 231 220 221 223
152 116 47 56 315 278 247 50 65 96 39 5 3 337 63 77 73 55 67 76 67 59 52 58 66 63 133 165 346 226 235 252 263 252 247 237 240 239 240 238 234 230 225 228
178 143 137 162 212 261 265 70 178 145 115 120 3 331 326 25 42 11 43 58 65 55 50 49 43 52 298 280 315 211 227 235 233 243 249 261 244 290 306 308 251 234 228 226
4 0 186 260 236 267 25 2 313 152 142 154 136 303 287 99 96 19 35 51 64 71 60 46 10 11 30 19 23 346 269 239 244 264 296 318 321 280 272 277 267 237 225 224
52 347 24 327 353 330 349 345 49 127 143 128 123 140 118 140 131 120 105 66 65 70 69 64 48 48 39 22 22 20 348 314 277 279 302 303 332 314 264 249 250 226 223 220
68 91 199 191 211 326 345 8 67 109 126 132 113 132 135 126 128 131 112 83 70 73 76 66 55 61 64 61 39 20 2 343 323 322 333 337 358 358 159 202 204 214 219 221
110 204 256 188 211 241 311 312 86 81 91 104 117 126 114 119 127 97 89 86 65 50 48 43 25 21 22 23 27 3 355 351 337 336 330 305 15 21 286 223 216 217 220 223
225 260 60 304 351 132 12 317 71 63 74 77 83 89 111 102 113 106 99 78 54 34 25 34 32 29 13 7 19 11 341 317 313 318 319 322 299 268 267 252 235 225 232 232
203 108 104 247 308 236 117 291 9 34 79 83 88 77 72 71 69 69 65 54 42 26 32 39 41 39 34 35 43 38 24 10 356 342 305 303 292 281 261 255 247 251 259 243
Height
1480 1492 1502 1495 1489 1484 1483 1483 1482 1466 1452 1457 1457 1456 1452 1448 1446 1449 1454 1459 1462 1464 1471 1476 1480 1487 1491 1497 1502 1508 1511 1513 1515 1518 1519 1520 1521 1522 1522 1522 1523 1523 1524 1525
1481 1489 1478 1476 1476 1476 1477 1481 1477 1462 1451 1452 1455 1456 1446 1442 1442 1439 1441 1447 1454 1461 1468 1472 1476 1482 1485 1489 1496 1503 1507 1510 1513 1515 1517 1517 1518 1519 1520 1520 1520 1520 1522 1522
1478 1470 1466 1467 1470 1473 1472 1476 1473 1470 1456 1450 1455 1465 1451 1440 1436 1435 1435 1439 1443 1452 1460 1467 1471 1476 1480 1484 1489 1497 1503 1507 1512 1514 1515 1515 1516 1516 1516 1517 1518 1520 1520 1520
1469 1462 1461 1461 1463 1462 1482 1457 1457 1459 1470 1494 1453 1500 1463 1446 1439 1433 1428 1430 1439 1449 1457 1462 1466 1472 1475 1480 1487 1495 1499 1504 1509 1510 1511 1512 1513 1513 1513 1515 1517 1518 1518 1518
1464 1461 1458 1460 1455 1449 1461 1448 1454 1456 1470 1472 1469 1487 1468 1445 1443 1435 1432 1433 1437 1446 1453 1455 1459 1465 1472 1477 1483 1491 1495 1499 1503 1507 1510 1511 1511 1512 1514 1514 1514 1515 1516 1515
1450 1448 1447 1448 1442 1441 1440 1449 1453 1458 1473 1502 1476 1479 1468 1456 1444 1435 1430 1437 1442 1448 1451 1451 1456 1464 1471 1477 1482 1486 1490 1497 1499 1503 1505 1506 1507 1509 1511 1511 1511 1512 1513 1513
1448 1447 1441 1440 1446 1439 1441 1460 1501 1510 1512 1509 1464 1476 1452 1432 1427 1427 1427 1430 1435 1439 1444 1450 1457 1464 1470 1474 1478 1483 1488 1492 1494 1499 1502 1503 1504 1505 1508 1509 1509 1509 1510 1510
1464 1472 1442 1433 1441 1450 1446 1459 1498 1517 1517 1486 1456 1480 1447 1417 1416 1419 1421 1426 1433 1437 1440 1449 1455 1461 1465 1471 1476 1481 1485 1487 1492 1496 1499 1500 1501 1502 1504 1505 1506 1506 1507 1507
1454 1453 1431 1431 1428 1432 1447 1459 1449 1478 1473 1487 1469 1447 1421 1411 1419 1418 1427 1431 1434 1437 1441 1448 1454 1459 1463 1470 1475 1480 1483 1486 1492 1493 1496 1496 1495 1499 1502 1504 1504 1503 1503 1504
1429 1450 1428 1423 1423 1423 1433 1433 1468 1473 1494 1501 1475 1457 1454 1428 1421 1423 1428 1432 1434 1437 1444 1450 1455 1460 1466 1472 1477 1480 1483 1488 1489 1490 1491 1493 1494 1495 1498 1502 1502 1500 1501 1502
1420 1427 1433 1422 1426 1433 1435 1441 1442 1454 1465 1492 1495 1473 1433 1431 1425 1429 1428 1432 1435 1439 1444 1451 1457 1462 1466 1472 1475 1477 1481 1485 1487 1489 1490 1490 1491 1493 1496 1499 1498 1499 1499 1501
1423 1424 1443 1431 1411 1410 1412 1423 1435 1464 1473 1464 1471 1467 1430 1425 1425 1427 1431 1433 1435 1439 1443 1451 1456 1461 1464 1468 1474 1477 1481 1483 1486 1488 1490 1492 1492 1491 1494 1495 1496 1496 1497 1500
1422 1429 1441 1435 1419 1407 1416 1414 1421 1432 1444 1460 1477 1468 1433 1430 1429 1438 1435 1439 1441 1448 1445 1449 1455 1460 1464 1468 1472 1477 1480 1483 1485 1488 1490 1492 1495 1495 1495 1495 1496 1496 1497 1499
1421 1427 1434 1451 1431 1416 1424 1419 1410 1427 1450 1446 1449 1453 1447 1436 1431 1435 1444 1446 1450 1454 1453 1454 1457 1461 1464 1468 1471 1476 1479 1483 1486 1489 1490 1492 1495 1498 1498 1499 1499 1498 1497 1499
1431 1442 1431 1419 1407 1410 1409 1418 1419 1424 1427 1440 1441 1444 1443 1437 1430 1438 1445 1463 1454 1455 1458 1459 1460 1463 1467 1469 1473 1476 1480 1483 1484 1486 1489 1491 1494 1496 1500 1502 1502 1501 1500 1499
1428 1442 1443 1426 1407 1409 1414 1415 1413 1413 1414 1414 1419 1433 1422 1429 1429 1429 1441 1450 1451 1458 1461 1456 1461 1466 1469 1471 1473 1475 1479 1481 1478 1484 1487 1490 1492 1493 1495 1498 1499 1500 1501 1500
1438 1447 1456 1448 1428 1418 1432 1436 1435 1430 1427 1407 1427 1432 1433 1437 1439 1435 1437 1443 1448 1455 1455 1457 1462 1464 1465 1468 1471 1473 1474 1477 1480 1484 1485 1485 1487 1488 1490 1491 1495 1499 1499 1499
1438 1451 1460 1464 1450 1460 1435 1425 1432 1437 1449 1435 1421 1430 1435 1438 1438 1435 1438 1440 1444 1452 1459 1461 1461 1464 1465 1469 1470 1471 1473 1476 1480 1480 1482 1483 1485 1487 1489 1491 1493 1494 1498 1499
1425 1443 1463 1470 1468 1445 1422 1436 1438 1442 1470 1467 1463 1455 1440 1445 1444 1443 1443 1442 1451 1456 1461 1463 1462 1464 1465 1467 1468 1472 1472 1474 1477 1480 1484 1482 1486 1490 1490 1493 1489 1492 1494 1496
1426 1427 1441 1466 1471 1469 1430 1439 1435 1431 1469 1462 1477 1472 1464 1454 1468 1460 1456 1457 1460 1461 1463 1464 1465 1464 1464 1466 1468 1470 1472 1473 1474 1474 1475 1476 1472 1461 1473 1490 1495 1487 1488 1488
1444 1445 1446 1448 1453 1439 1437 1441 1436 1449 1471 1464 1470 1478 1475 1469 1460 1466 1465 1469 1471 1465 1469 1469 1467 1467 1464 1465 1467 1467 1468 1468 1469 1470 1472 1469 1465 1459 1451 1472 1485 1483 1480 1482
1467 1468 1471 1466 1457 1461 1445 1441 1449 1454 1461 1456 1458 1476 1470 1469 1472 1476 1477 1476 1471 1469 1469 1469 1467 1465 1465 1466 1466 1465 1464 1463 1463 1463 1465 1467 1460 1442 1418 1440 1459 1471 1473 1474
1476 1475 1479 1476 1474 1468 1464 1459 1450 1451 1454 1459 1454 1466 1468 1474 1478 1483 1480 1474 1470 1469 1468 1467 1466 1466 1466 1463 1463 1463 1461 1460 1458 1456 1457 1453 1439 1416 1406 1425 1445 1457 1462 1467
1472 1470 1477 1475 1467 1460 1464 1471 1458 1456 1453 1458 1461 1467 1471 1475 1479 1477 1475 1474 1471 1469 1469 1470 1465 1463 1461 1462 1464 1462 1461 1458 1454 1452 1452 1450 1444 1438 1438 1444 1445 1450 1455 1458
1468 1467 1467 1467 1464 1465 1465 1470 1465 1463 1456 1457 1461 1466 1471 1473 1474 1473 1473 1473 1471 1471 1468 1465 1461 1460 1460 1461 1460 1460 1458 1455 1452 1450 1448 1447 1445 1447 1446 1438 1444 1448 1452 1454
1468 1467 1472 1475 1471 1475 1476 1469 1471 1469 1466 1464 1463 1461 1461 1462 1463 1465 1465 1466 1467 1466 1464 1461 1460 1460 1461 1460 1459 1457 1457 1454 1451 1448 1445 1442 1442 1440 1442 1442 1438 1441 1448 1447